Location: Dillon
(41.1766°N, 107.0923°W)
Time: 08:50:42
(UTC+00:00)

Cosmos 1420 Rocket - Visible Passes

Search period start: 26 November 2022 00:00
Search period end: 06 December 2022 00:00
Orbit: 754 x 780 km, 74.0° (Epoch: 25 November)

Date Brightness Start Highest point End Pass type
(mag) Time Alt. Az. Time Alt. Az. Time Alt. Az.
26 Nov 6.5 01:41:20 10° W 01:44:41 17° NW 01:48:03 10° NNW visible
27 Nov 5.9 01:02:38 10° WSW 01:07:02 27° WNW 01:11:28 10° N visible
28 Nov 5.1 00:24:33 10° SW 00:29:30 45° WNW 00:34:31 10° N visible
29 Nov 6.8 01:33:44 10° WNW 01:35:05 11° NW 01:36:26 10° NW visible
30 Nov 6.4 00:53:50 10° W 00:57:19 18° NW 01:00:50 10° NNW visible
01 Dec 5.8 00:15:13 10° WSW 00:19:41 28° WNW 00:24:12 10° N visible
03 Dec 6.7 00:46:00 10° WNW 00:47:43 11° NW 00:49:26 10° NNW visible
04 Dec 6.4 00:06:21 10° W 00:09:57 19° WNW 00:13:36 10° NNW visible
